TimeEDT,TemperatureF,Dew PointF,Humidity,Sea Level PressureIn,VisibilityMPH,Wind Direction,Wind SpeedMPH,Gust SpeedMPH,PrecipitationIn,Events,Conditions,WindDirDegrees,DateUTC
12:15 AM,56.5,50.0,79,29.59,10.0,WSW,17.3,32.2,N/A,,Overcast,240,2012-10-15 04:15:00
12:35 AM,56.7,47.7,72,29.61,10.0,West,15.0,31.1,N/A,,Overcast,260,2012-10-15 04:35:00
12:55 AM,56.3,47.3,72,29.61,10.0,West,17.3,29.9,N/A,,Overcast,260,2012-10-15 04:55:00
1:15 AM,55.4,47.1,74,29.62,10.0,West,20.7,32.2,N/A,,Overcast,260,2012-10-15 05:15:00
1:35 AM,54.9,47.7,77,29.64,10.0,West,12.7,20.7,N/A,,Overcast,260,2012-10-15 05:35:00
1:55 AM,54.0,47.3,78,29.64,10.0,West,16.1,27.6,N/A,,Mostly Cloudy,260,2012-10-15 05:55:00
2:15 AM,53.6,47.3,79,29.66,10.0,West,18.4,26.5,N/A,,Mostly Cloudy,260,2012-10-15 06:15:00
2:35 AM,53.6,46.8,78,29.66,10.0,West,17.3,25.3,N/A,,Mostly Cloudy,270,2012-10-15 06:35:00
2:55 AM,53.6,47.3,79,29.67,10.0,WSW,11.5,19.6,N/A,,Mostly Cloudy,250,2012-10-15 06:55:00
3:15 AM,53.1,47.3,81,29.68,10.0,West,11.5,21.9,N/A,,Overcast,260,2012-10-15 07:15:00
3:35 AM,52.2,47.8,85,29.68,5.0,West,10.4,17.3,N/A,,Overcast,270,2012-10-15 07:35:00
3:55 AM,51.8,48.2,88,29.68,10.0,WSW,9.2,-,N/A,,Light Drizzle,240,2012-10-15 07:55:00
4:15 AM,51.8,47.7,86,29.69,10.0,WSW,11.5,18.4,N/A,,Overcast,250,2012-10-15 08:15:00
4:35 AM,51.4,47.3,86,29.69,10.0,WSW,8.1,16.1,N/A,,Mostly Cloudy,250,2012-10-15 08:35:00
4:55 AM,51.8,47.3,85,29.69,10.0,West,9.2,19.6,N/A,,Overcast,260,2012-10-15 08:55:00
5:15 AM,51.8,47.3,85,29.70,10.0,West,8.1,16.1,N/A,,Overcast,260,2012-10-15 09:15:00
5:55 AM,51.4,46.4,83,29.72,10.0,WSW,8.1,16.1,N/A,,Overcast,250,2012-10-15 09:55:00
6:15 AM,51.4,46.0,82,29.73,10.0,WSW,8.1,-,N/A,,Overcast,250,2012-10-15 10:15:00
6:35 AM,51.1,46.4,84,29.73,10.0,West,6.9,-,N/A,,Overcast,260,2012-10-15 10:35:00
6:55 AM,51.1,45.9,82,29.74,10.0,West,8.1,-,N/A,,Overcast,260,2012-10-15 10:55:00
7:15 AM,50.9,45.5,82,29.74,10.0,West,6.9,-,N/A,,Overcast,260,2012-10-15 11:15:00
7:35 AM,51.1,45.3,81,29.75,10.0,West,9.2,-,N/A,,Overcast,270,2012-10-15 11:35:00
8:15 AM,50.9,44.6,79,29.75,10.0,West,9.2,-,N/A,,Overcast,260,2012-10-15 12:15:00
8:35 AM,50.5,45.0,81,29.76,10.0,West,8.1,-,N/A,,Overcast,260,2012-10-15 12:35:00
8:55 AM,50.9,45.1,81,29.77,10.0,West,9.2,-,N/A,,Overcast,270,2012-10-15 12:55:00
9:15 AM,50.9,44.8,80,29.77,10.0,West,9.2,-,N/A,,Overcast,270,2012-10-15 13:15:00
9:35 AM,50.9,44.8,80,29.77,10.0,West,6.9,-,N/A,,Overcast,270,2012-10-15 13:35:00
9:55 AM,51.4,43.9,75,29.78,10.0,West,9.2,17.3,N/A,,Overcast,280,2012-10-15 13:55:00
10:15 AM,52.3,43.3,71,29.78,10.0,West,9.2,17.3,N/A,,Overcast,280,2012-10-15 14:15:00
10:35 AM,52.9,43.2,70,29.79,10.0,West,11.5,18.4,N/A,,Overcast,280,2012-10-15 14:35:00
10:55 AM,52.2,42.8,70,29.79,10.0,WNW,6.9,-,N/A,,Overcast,300,2012-10-15 14:55:00
11:15 AM,52.9,42.4,68,29.80,10.0,WNW,9.2,17.3,N/A,,Overcast,290,2012-10-15 15:15:00
11:35 AM,53.2,41.4,64,29.81,10.0,WNW,11.5,18.4,N/A,,Overcast,300,2012-10-15 15:35:00
11:55 AM,53.2,41.0,63,29.82,10.0,WNW,5.8,18.4,N/A,,Overcast,290,2012-10-15 15:55:00
12:15 PM,53.2,42.1,66,29.82,10.0,West,8.1,19.6,N/A,,Overcast,280,2012-10-15 16:15:00
12:35 PM,53.4,40.8,62,29.83,10.0,West,9.2,19.6,N/A,,Overcast,280,2012-10-15 16:35:00
12:55 PM,53.2,41.4,64,29.83,10.0,West,11.5,16.1,N/A,,Overcast,280,2012-10-15 16:55:00
1:15 PM,52.9,41.2,64,29.83,10.0,WNW,9.2,17.3,N/A,,Overcast,290,2012-10-15 17:15:00
1:35 PM,52.5,41.2,65,29.84,10.0,WNW,9.2,-,N/A,,Overcast,300,2012-10-15 17:35:00
1:55 PM,52.9,42.1,67,29.84,10.0,WNW,9.2,-,N/A,,Overcast,300,2012-10-15 17:55:00
2:15 PM,53.4,42.6,67,29.83,10.0,WNW,8.1,-,N/A,,Overcast,300,2012-10-15 18:15:00
2:35 PM,53.8,42.1,65,29.83,10.0,West,10.4,18.4,N/A,,Overcast,280,2012-10-15 18:35:00
2:55 PM,52.9,42.1,67,29.84,10.0,NW,9.2,-,N/A,,Overcast,310,2012-10-15 18:55:00
3:15 PM,53.2,42.6,67,29.84,10.0,NW,6.9,-,N/A,,Overcast,310,2012-10-15 19:15:00
3:35 PM,53.6,42.4,66,29.85,10.0,WNW,10.4,-,N/A,,Overcast,300,2012-10-15 19:35:00
3:55 PM,53.1,42.3,67,29.85,10.0,WNW,6.9,16.1,N/A,,Overcast,290,2012-10-15 19:55:00
4:15 PM,52.7,41.9,67,29.86,10.0,WNW,11.5,17.3,N/A,,Overcast,290,2012-10-15 20:15:00
4:35 PM,52.7,41.5,66,29.87,10.0,WNW,9.2,18.4,N/A,,Overcast,290,2012-10-15 20:35:00
4:55 PM,51.8,41.2,67,29.87,10.0,WNW,8.1,18.4,N/A,,Overcast,290,2012-10-15 20:55:00
5:15 PM,51.8,40.5,65,29.88,10.0,WNW,5.8,-,N/A,,Overcast,300,2012-10-15 21:15:00
5:35 PM,51.1,40.5,67,29.89,10.0,NW,9.2,-,N/A,,Overcast,320,2012-10-15 21:35:00
5:55 PM,50.5,40.1,67,29.90,10.0,NW,9.2,-,N/A,,Overcast,320,2012-10-15 21:55:00
6:15 PM,50.2,39.9,68,29.89,10.0,NW,5.8,-,N/A,,Overcast,310,2012-10-15 22:15:00
6:35 PM,50.0,39.7,68,29.90,10.0,WNW,5.8,-,N/A,,Overcast,300,2012-10-15 22:35:00
6:55 PM,49.6,39.6,68,29.90,10.0,WNW,6.9,-,N/A,,Overcast,300,2012-10-15 22:55:00
7:15 PM,49.5,39.6,69,29.91,10.0,WNW,5.8,-,N/A,,Overcast,300,2012-10-15 23:15:00
7:35 PM,49.3,39.6,69,29.92,10.0,West,4.6,-,N/A,,Overcast,280,2012-10-15 23:35:00
7:55 PM,49.3,39.4,69,29.92,10.0,WNW,4.6,-,N/A,,Overcast,290,2012-10-15 23:55:00
8:15 PM,49.1,39.4,69,29.92,10.0,West,4.6,-,N/A,,Overcast,280,2012-10-16 00:15:00
8:35 PM,49.1,39.4,69,29.92,10.0,WNW,4.6,-,N/A,,Overcast,290,2012-10-16 00:35:00
8:55 PM,48.9,39.7,71,29.93,10.0,WNW,3.5,-,N/A,,Overcast,290,2012-10-16 00:55:00
9:15 PM,48.6,39.7,72,29.94,10.0,WNW,3.5,-,N/A,,Overcast,290,2012-10-16 01:15:00
9:35 PM,48.7,39.4,70,29.94,10.0,West,5.8,-,N/A,,Overcast,280,2012-10-16 01:35:00
9:55 PM,48.7,39.4,70,29.94,10.0,West,5.8,-,N/A,,Overcast,280,2012-10-16 01:55:00
10:15 PM,48.6,39.2,70,29.94,10.0,West,5.8,-,N/A,,Overcast,280,2012-10-16 02:15:00
10:35 PM,48.4,39.4,71,29.94,10.0,West,3.5,-,N/A,,Overcast,280,2012-10-16 02:35:00
10:55 PM,48.2,39.6,72,29.95,10.0,West,4.6,-,N/A,,Overcast,280,2012-10-16 02:55:00
11:15 PM,48.2,39.7,73,29.95,10.0,West,3.5,-,N/A,,Overcast,280,2012-10-16 03:15:00
11:35 PM,48.2,39.4,72,29.95,10.0,Calm,Calm,-,N/A,,Overcast,0,2012-10-16 03:35:00
11:55 PM,47.7,39.4,73,29.95,10.0,West,4.6,-,N/A,,Overcast,280,2012-10-16 03:55:00